WZZ43 EPWR-LEVC

Flight info

Callsign WZZ43
Flight time N/A
Altitude 18000
Route ULGIL T707 TOMTI/N0431F320 DCT RUDAP DCT EBEDA DCT BADVI DCT BERAS DCT OLPIX/N0435F330 DCT EKPEB DCT RENTA DCT LEVSI DCT BOTAL DCT GEKBA DCT VAMTU DCT KOLON DCT GANGU DCT PADKO DCT DIVKO DCT NILDU DCT NENDA N975 BCN M985 SOPET
Aircraft A21N/M-SDE2E3FGHIRWXY/LB1

Departure

Time 2026-04-28 20:18
Airport Copernicus Wrocław Airport (EPWR)

Arrival

Time N/A
Airport Valencia Airport (LEVC)
Time Latitude Longitude Altitude Speed Heading
2026-04-28 19:43 51.10866 16.87987 427 ft 0 kts 25°
2026-04-28 20:08 51.10854 16.87978 427 ft 4 kts 30°
2026-04-28 20:08 51.10833 16.87953 417 ft 4 kts 48°
2026-04-28 20:08 51.10818 16.87918 420 ft 4 kts 64°
2026-04-28 20:08 51.10813 16.87902 397 ft 1 kts 66°
2026-04-28 20:09 51.10813 16.87901 396 ft 0 kts 66°
2026-04-28 20:13 51.10815 16.87907 399 ft 2 kts 68°
2026-04-28 20:13 51.10815 16.87959 406 ft 7 kts 96°
2026-04-28 20:14 51.10791 16.88055 423 ft 12 kts 119°
2026-04-28 20:14 51.10730 16.88177 427 ft 16 kts 122°
2026-04-28 20:14 51.10675 16.88357 421 ft 20 kts 112°
2026-04-28 20:14 51.10610 16.88575 424 ft 24 kts 116°
2026-04-28 20:15 51.10533 16.88825 422 ft 26 kts 115°
2026-04-28 20:15 51.10454 16.89090 424 ft 27 kts 116°
2026-04-28 20:15 51.10368 16.89361 421 ft 28 kts 116°
2026-04-28 20:15 51.10283 16.89643 423 ft 29 kts 116°
2026-04-28 20:16 51.10212 16.89878 420 ft 19 kts 115°
2026-04-28 20:16 51.10113 16.89949 427 ft 19 kts 205°
2026-04-28 20:16 51.09993 16.89853 423 ft 19 kts 205°
2026-04-28 20:16 51.09921 16.89737 420 ft 16 kts 270°
2026-04-28 20:17 51.09949 16.89627 417 ft 0 kts 297°
2026-04-28 20:17 51.09949 16.89626 417 ft 1 kts 297°
2026-04-28 20:17 51.10065 16.89283 417 ft 71 kts 303°
2026-04-28 20:17 51.10413 16.88344 421 ft 128 kts 290°
2026-04-28 20:18 51.10810 16.86777 567 ft 169 kts 296°
2026-04-28 20:18 51.11142 16.85615 888 ft 180 kts 296°
2026-04-28 20:18 51.11882 16.83221 1793 ft 183 kts 299°
2026-04-28 20:18 51.12461 16.81360 2225 ft 192 kts 298°
2026-04-28 20:19 51.12796 16.79231 2603 ft 211 kts 269°
2026-04-28 20:19 51.12331 16.76908 2910 ft 236 kts 233°
2026-04-28 20:19 51.11006 16.75240 3242 ft 256 kts 200°
2026-04-28 20:19 51.09312 16.74189 3921 ft 266 kts 212°
2026-04-28 20:20 51.08062 16.72042 4702 ft 270 kts 244°
2026-04-28 20:20 51.07671 16.69154 5535 ft 269 kts 272°
2026-04-28 20:20 51.07817 16.66182 6333 ft 271 kts 277°
2026-04-28 20:20 51.08005 16.63228 7142 ft 273 kts 277°
2026-04-28 20:21 51.08162 16.60212 7956 ft 274 kts 276°
2026-04-28 20:21 51.08288 16.57187 8778 ft 275 kts 276°
2026-04-28 20:21 51.08397 16.54141 9591 ft 276 kts 276°
2026-04-28 20:21 51.08498 16.51079 10368 ft 278 kts 276°
2026-04-28 20:22 51.08597 16.47955 10835 ft 291 kts 276°
2026-04-28 20:22 51.08698 16.44635 11117 ft 309 kts 276°
2026-04-28 20:22 51.08799 16.41139 11536 ft 321 kts 276°
2026-04-28 20:22 51.08899 16.37618 12195 ft 325 kts 276°
2026-04-28 20:23 51.09002 16.34022 12915 ft 327 kts 276°
2026-04-28 20:23 51.09103 16.30399 13643 ft 329 kts 276°
2026-04-28 20:23 51.09201 16.26742 14334 ft 332 kts 276°
2026-04-28 20:23 51.09264 16.24303 14761 ft 334 kts 276°
2026-04-28 20:24 51.09396 16.19337 15608 ft 338 kts 276°
2026-04-28 20:24 51.09496 16.15592 16246 ft 340 kts 276°
2026-04-28 20:24 51.09595 16.11817 16887 ft 343 kts 276°
2026-04-28 20:24 51.09693 16.08004 17509 ft 346 kts 276°
2026-04-28 20:25 51.09782 16.04209 18136 ft 350 kts 274°
2026-04-28 20:25 51.09532 16.00328 18712 ft 358 kts 260°
2026-04-28 20:25 51.08826 15.96497 19257 ft 363 kts 256°
2026-04-28 20:25 51.08040 15.92674 19814 ft 365 kts 256°
2026-04-28 20:26 51.07254 15.88830 20346 ft 367 kts 256°
2026-04-28 20:26 51.06471 15.84959 20908 ft 369 kts 257°
2026-04-28 20:26 51.05690 15.81067 21440 ft 370 kts 257°
2026-04-28 20:26 51.04907 15.77159 21972 ft 372 kts 257°
2026-04-28 20:27 51.04133 15.73279 22483 ft 374 kts 257°
2026-04-28 20:27 51.03343 15.69325 22991 ft 377 kts 257°
2026-04-28 20:27 51.02547 15.65348 23497 ft 379 kts 257°
2026-04-28 20:27 51.01748 15.61356 23959 ft 381 kts 257°
2026-04-28 20:28 51.00935 15.57324 24364 ft 383 kts 257°
2026-04-28 20:28 51.00122 15.53294 24768 ft 385 kts 257°
2026-04-28 20:28 50.99305 15.49238 25175 ft 386 kts 257°
2026-04-28 20:28 50.98482 15.45163 25568 ft 388 kts 257°
2026-04-28 20:29 50.97666 15.41132 25948 ft 390 kts 257°
2026-04-28 20:29 50.96835 15.37033 26336 ft 392 kts 257°
2026-04-28 20:29 50.95931 15.32941 26712 ft 396 kts 251°
2026-04-28 20:29 50.94558 15.29102 27074 ft 406 kts 238°
2026-04-28 20:30 50.92595 15.25829 27427 ft 415 kts 225°
2026-04-28 20:30 50.90315 15.22985 27802 ft 419 kts 222°
2026-04-28 20:30 50.87982 15.20202 28160 ft 420 kts 223°
2026-04-28 20:30 50.85654 15.17391 28516 ft 422 kts 223°
2026-04-28 20:31 50.83329 15.14543 28853 ft 423 kts 223°
2026-04-28 20:31 50.81031 15.11719 29175 ft 425 kts 223°
2026-04-28 20:31 50.78692 15.08848 29490 ft 427 kts 223°
2026-04-28 20:31 50.76341 15.05956 29799 ft 429 kts 223°
2026-04-28 20:32 50.73983 15.03061 30099 ft 430 kts 223°
2026-04-28 20:32 50.71619 15.00153 30385 ft 431 kts 223°
2026-04-28 20:32 50.69241 14.97244 30628 ft 433 kts 223°
2026-04-28 20:32 50.66857 14.94328 30850 ft 435 kts 223°
2026-04-28 20:33 50.64462 14.91396 31090 ft 437 kts 223°
2026-04-28 20:33 50.62091 14.88508 31369 ft 436 kts 223°
2026-04-28 20:33 50.59692 14.85592 31683 ft 435 kts 223°
2026-04-28 20:33 50.57301 14.82690 31972 ft 434 kts 223°
2026-04-28 20:34 50.54908 14.79783 32240 ft 434 kts 223°
2026-04-28 20:34 50.52521 14.76893 32523 ft 433 kts 223°
2026-04-28 20:34 50.50132 14.74003 32767 ft 433 kts 224°
2026-04-28 20:35 50.45364 14.68244 32814 ft 432 kts 224°
2026-04-28 20:35 50.40602 14.62509 32781 ft 431 kts 224°
2026-04-28 20:36 50.35850 14.56792 32769 ft 430 kts 224°
2026-04-28 20:36 50.31138 14.51136 32768 ft 430 kts 224°
2026-04-28 20:37 50.26392 14.45458 32762 ft 429 kts 224°
2026-04-28 20:37 50.21658 14.39812 32760 ft 428 kts 224°
2026-04-28 20:38 50.16924 14.34178 32751 ft 427 kts 224°
2026-04-28 20:38 50.12234 14.28612 32780 ft 427 kts 224°
2026-04-28 20:39 50.07515 14.23037 32778 ft 426 kts 224°
2026-04-28 20:39 50.03591 14.18400 32784 ft 425 kts 224°
2026-04-28 20:40 49.98886 14.12849 32781 ft 424 kts 224°
2026-04-28 20:40 49.93427 14.06431 32774 ft 423 kts 224°
2026-04-28 20:41 49.89496 14.01824 32765 ft 422 kts 224°
2026-04-28 20:41 49.84841 13.96379 32755 ft 422 kts 224°
2026-04-28 20:42 49.80158 13.90919 32749 ft 421 kts 224°
2026-04-28 20:42 49.75488 13.85484 32750 ft 420 kts 224°
2026-04-28 20:43 49.70819 13.80067 32747 ft 419 kts 224°
2026-04-28 20:43 49.66159 13.74670 32740 ft 419 kts 225°
2026-04-28 20:44 49.61523 13.69340 32736 ft 418 kts 225°
2026-04-28 20:44 49.56864 13.63981 32738 ft 417 kts 225°
2026-04-28 20:45 49.52215 13.58624 32740 ft 421 kts 225°
2026-04-28 20:45 49.49901 13.55964 32739 ft 420 kts 225°